TimePDT,TemperatureF,Dew PointF,Humidity,Sea Level PressureIn,VisibilityMPH,Wind Direction,Wind SpeedMPH,Gust SpeedMPH,PrecipitationIn,Events,Conditions,WindDirDegrees,DateUTC
12:53 AM,52.0,42.1,69,30.03,10.0,Calm,Calm,-,N/A,,Clear,0,2013-11-02 07:53:00
1:53 AM,51.1,41.0,68,30.03,10.0,Calm,Calm,-,N/A,,Clear,0,2013-11-02 08:53:00
2:53 AM,50.0,39.9,68,30.03,10.0,Calm,Calm,-,N/A,,Clear,0,2013-11-02 09:53:00
3:53 AM,46.9,39.0,74,30.01,10.0,ESE,4.6,-,N/A,,Clear,120,2013-11-02 10:53:00
4:53 AM,48.0,39.0,71,30.01,10.0,Calm,Calm,-,N/A,,Clear,0,2013-11-02 11:53:00
5:53 AM,48.0,39.0,71,30.01,10.0,ESE,3.5,-,N/A,,Clear,120,2013-11-02 12:53:00
6:53 AM,48.9,39.0,69,30.01,10.0,Calm,Calm,-,N/A,,Partly Cloudy,0,2013-11-02 13:53:00
7:53 AM,48.0,39.0,71,30.01,10.0,ESE,4.6,-,N/A,,Partly Cloudy,110,2013-11-02 14:53:00
8:53 AM,52.0,41.0,66,30.03,10.0,Calm,Calm,-,N/A,,Partly Cloudy,0,2013-11-02 15:53:00
9:53 AM,55.9,50.0,80,30.04,10.0,WNW,5.8,-,N/A,,Partly Cloudy,290,2013-11-02 16:53:00
10:53 AM,60.1,48.9,67,30.01,10.0,ESE,5.8,-,N/A,,Partly Cloudy,110,2013-11-02 17:53:00
11:53 AM,64.0,48.9,58,30.00,10.0,NW,6.9,-,N/A,,Mostly Cloudy,320,2013-11-02 18:53:00
12:53 PM,64.0,51.1,63,29.98,10.0,NW,6.9,-,N/A,,Mostly Cloudy,310,2013-11-02 19:53:00
1:53 PM,66.9,48.0,51,29.96,10.0,WNW,11.5,-,N/A,,Mostly Cloudy,300,2013-11-02 20:53:00
2:53 PM,69.1,46.0,44,29.95,10.0,WNW,10.4,-,N/A,,Mostly Cloudy,300,2013-11-02 21:53:00
3:53 PM,69.1,44.1,40,29.94,10.0,NW,8.1,-,N/A,,Mostly Cloudy,310,2013-11-02 22:53:00
4:53 PM,64.9,51.1,61,29.94,10.0,NW,15.0,-,N/A,,Mostly Cloudy,320,2013-11-02 23:53:00
5:53 PM,62.1,52.0,70,29.94,10.0,NW,12.7,-,N/A,,Mostly Cloudy,320,2013-11-03 00:53:00
6:53 PM,60.1,51.1,72,29.94,10.0,North,8.1,-,N/A,,Scattered Clouds,350,2013-11-03 01:53:00
7:53 PM,57.9,48.0,70,29.94,10.0,NW,9.2,-,N/A,,Clear,320,2013-11-03 02:53:00
8:53 PM,57.9,46.0,65,29.95,10.0,North,4.6,-,N/A,,Clear,360,2013-11-03 03:53:00
9:53 PM,55.9,46.0,69,29.95,10.0,WNW,4.6,-,N/A,,Clear,300,2013-11-03 04:53:00
10:53 PM,53.1,45.0,74,29.96,10.0,WNW,5.8,-,N/A,,Clear,300,2013-11-03 05:53:00
11:53 PM,53.1,46.0,77,29.97,10.0,Calm,Calm,-,N/A,,Clear,0,2013-11-03 06:53:00